Weather History for Berlin, NH

Change the Weather History Date:

Friday, October 18, 2013

  Actual Average Record
Temperature  
Mean Temperature 52 °F -  
Max Temperature 61 °F 51 °F 77 °F (1998)
Min Temperature 39 °F 27 °F 17 °F (1996)
Degree Days  
Heating Degree Days 14    
Growing Degree Days 2 (Base 50)    
Moisture  
Dew Point 45 °F    
Average Humidity 85    
Maximum Humidity 100    
Minimum Humidity 53    
Precipitation  
Precipitation 0.46 in - - ()
Sea Level Pressure  
Sea Level Pressure 29.69 in    
Wind  
Wind Speed 2 mph (WNW)    
Max Wind Speed 9 mph    
Max Gust Speed 22 mph    
Visibility 8 miles    
Events Rain    
Averages and records for this station are not official NWS values.
T = Trace of Precipitation, MM = Missing Value Source: NWS Daily Summary

Daily Weather History Graph

Daily Weather History Graph

Search for Another Location

Airport:

Trip Planner

Search our weather history database for the weather conditions in past years. The results will help you decide how hot, cold, wet, or windy it might be!

Date:

Astronomy

Oct. 18, 2013 Rise Set
Actual Time 7:04 AM EDT 5:54 PM EDT
Civil Twilight 6:34 AM EDT 6:24 PM EDT
Nautical Twilight 6:00 AM EDT 6:58 PM EDT
Astronomical Twilight 5:26 AM EDT 7:31 PM EDT
Moon 5:42 PM EDT (10/18) 6:36 AM EDT (10/18)
Length of Visible Light 11h 49m
Length of Day
10h 50m
Full, 100% of the Moon is Illuminated
Oct 18
Full
Oct 18
Full
Oct 26
Last Quarter
Nov 3
New
Nov 10
First Quarter

Hourly Weather History & Observations

Time (EDT) Temp. Windchill Dew Point Humidity Pressure Visibility Wind Dir Wind Speed Gust Speed Precip Events Conditions
12:52 AM 44.1 °F 42.5 °F 43.0 °F 96% 29.75 in 7.0 mi SSW 3.5 mph - 0.01 in Rain Light Rain
1:02 AM 42.8 °F 41.1 °F 42.8 °F 100% 29.74 in 1.8 mi SSW 3.5 mph - 0.05 in Rain Heavy Rain
1:14 AM 44.6 °F - 42.8 °F 93% 29.72 in 3.0 mi Calm Calm - 0.09 in Rain Light Rain
1:52 AM 44.1 °F - 44.1 °F 100% 29.72 in 4.0 mi Calm Calm - 0.12 in Rain Light Rain
2:52 AM 46.0 °F 44.8 °F 45.0 °F 96% 29.66 in 5.0 mi NW 3.5 mph - 0.05 in Rain Light Rain
3:50 AM 46.4 °F - 46.4 °F 100% 29.67 in 2.5 mi Calm Calm - 0.12 in Rain Rain
3:52 AM 46.9 °F - 46.0 °F 97% 29.68 in 2.5 mi Calm Calm - 0.13 in Rain Rain
4:08 AM 46.4 °F - 46.4 °F 100% 29.68 in 2.0 mi Calm Calm - 0.08 in Rain Rain
4:26 AM 46.4 °F 44.3 °F 46.4 °F 100% 29.63 in 6.0 mi East 4.6 mph - 0.13 in Rain Light Rain
4:40 AM 46.4 °F - 46.4 °F 100% 29.62 in 10.0 mi Calm Calm - 0.13 in   Overcast
4:52 AM 46.9 °F - 46.0 °F 97% 29.63 in 10.0 mi Calm Calm - 0.13 in   Overcast
5:24 AM 48.2 °F - 46.4 °F 93% 29.60 in 10.0 mi Calm Calm - 0.00 in   Overcast
5:35 AM 48.2 °F - 46.4 °F 93% 29.60 in 10.0 mi Calm Calm - 0.00 in   Overcast
5:52 AM 48.0 °F - 46.9 °F 96% 29.61 in 10.0 mi Calm Calm - 0.00 in   Overcast
6:24 AM 48.2 °F - 46.4 °F 93% 29.59 in 10.0 mi Calm Calm - 0.00 in   Overcast
6:36 AM 48.2 °F - 46.4 °F 93% 29.61 in 10.0 mi NW 3.5 mph - 0.00 in   Overcast
6:52 AM 48.9 °F - 48.0 °F 97% 29.63 in 7.0 mi Calm Calm - 0.01 in Rain Light Rain
7:10 AM 48.2 °F - 48.2 °F 100% 29.62 in 4.0 mi Calm Calm - 0.00 in Rain Light Rain
7:24 AM 48.2 °F - 48.2 °F 100% 29.63 in 10.0 mi South 3.5 mph - 0.01 in Rain Light Rain
7:52 AM 48.9 °F - 48.0 °F 97% 29.66 in 10.0 mi Calm Calm - 0.01 in   Overcast
8:52 AM 51.1 °F - 48.9 °F 92% 29.67 in 10.0 mi Calm Calm - N/A   Mostly Cloudy
8:57 AM 51.8 °F - 50.0 °F 94% 29.65 in 10.0 mi Calm Calm - N/A   Overcast
9:28 AM 53.6 °F - 50.0 °F 88% 29.66 in 10.0 mi West 4.6 mph - N/A   Overcast
9:52 AM 54.0 °F - 50.0 °F 86% 29.69 in 10.0 mi WNW 6.9 mph - N/A   Overcast
10:34 AM 57.2 °F - 50.0 °F 77% 29.67 in 10.0 mi WNW 6.9 mph - N/A   Mostly Cloudy
10:52 AM 55.9 °F - 48.9 °F 77% 29.70 in 10.0 mi Variable 4.6 mph - N/A   Overcast
11:52 AM 55.9 °F - 48.0 °F 75% 29.70 in 10.0 mi Variable 6.9 mph - N/A   Overcast
12:03 PM 57.2 °F - 48.2 °F 72% 29.69 in 10.0 mi Variable 6.9 mph - N/A   Overcast
12:52 PM 61.0 °F - 46.9 °F 60% 29.70 in 10.0 mi NW 8.1 mph - N/A   Overcast
1:52 PM 60.1 °F - 45.0 °F 57% 29.70 in 10.0 mi WNW 8.1 mph - N/A   Mostly Cloudy
2:52 PM 57.9 °F - 43.0 °F 58% 29.71 in 10.0 mi WNW 9.2 mph 18.4 mph N/A   Mostly Cloudy
3:52 PM 57.9 °F - 42.1 °F 56% 29.73 in 10.0 mi Variable 6.9 mph 21.9 mph N/A   Mostly Cloudy
4:52 PM 57.9 °F - 41.0 °F 53% 29.74 in 10.0 mi Variable 6.9 mph - N/A   Overcast
5:52 PM 55.0 °F - 39.9 °F 57% 29.76 in 10.0 mi Variable 3.5 mph - N/A   Clear
6:52 PM 52.0 °F - 41.0 °F 66% 29.77 in 10.0 mi Calm Calm - N/A   Clear
7:52 PM 50.0 °F - 41.0 °F 71% 29.78 in 10.0 mi NW 3.5 mph - N/A   Partly Cloudy
8:52 PM 46.9 °F - 43.0 °F 86% 29.81 in 10.0 mi Calm Calm - 0.00 in   Overcast
9:52 PM 48.9 °F - 43.0 °F 80% 29.83 in 10.0 mi Calm Calm - 0.00 in   Scattered Clouds
10:52 PM 48.0 °F - 37.9 °F 68% 29.84 in 10.0 mi Calm Calm - N/A   Clear
11:52 PM 39.0 °F - 37.0 °F 93% 29.85 in 10.0 mi Calm Calm - N/A   Clear